Regional Weather Roundup
Issued by NWS Sterling, VA

Home | Current Version | Previous Version | Graphics & Text | Print | Product List | Glossary On
Versions: 1 2 3 4 5 6 7 8 9 10 11 12 13 14 15 16 17 18 19 20 21 22 23 24 25 26 27 28 29 30 31 32 33 34 35 36 37 38 39 40 41 42 43 44 45 46 47
000
ASUS41 KLWX 250810
RWRLWX

REGIONAL WEATHER ROUNDUP
NATIONAL WEATHER SERVICE BALTIMORE MD/WASHINGTON DC
400 AM EDT SAT APR 25 2015

Note: "FAIR" indicates few or no clouds below 12,000 feet
with no significant weather and/or obstructions to visibility.
 TC=TEMPERATURE CELSIUS

 * =Non NWS site. Station does not report precipitation (e.g. rain,
    snow, etc.), thunder, or fog.

DCZ001-MDZ009-015-VAZ040>042-051-053>054-250900-
WASHINGTON METRO

CITY           SKY/WX    TMP DP  RH WIND       PRES   REMARKS
WASHINGTON NAT MOCLDY    48  31  51 N5        29.98R
DULLES         MOCLDY    41  29  62 NW3       29.97S
ANDREWS AFB    MOCLDY    42  27  55 N6        29.96R
FT BELVOIR     CLOUDY    43  32  64 VRB3      29.97S
QUANTICO       MOCLDY    51  24  34 N7        29.98R
COLLEGE PARK*  PTCLDY    37  34  87 CALM      29.97S
LEESBURG*      CLEAR     37  32  81 N5        29.98R
MANASSAS*      MOCLDY    45  34  65 N5        29.97R
GAITHERSBURG*  CLEAR     36  21  55 CALM      30.00S

$$

MDZ006>007-011-014-250900-
BALTIMORE METRO

CITY           SKY/WX    TMP DP  RH WIND       PRES   REMARKS
BWI AIRPORT    PTCLDY    36  28  73 CALM      29.97S
MD SCIENCE CTR   N/A     44  23  43 MISG      29.99R
MARTIN STATE   CLEAR     37  30  75 CALM      29.99S
ANNAPOLIS      CLEAR     46  28  49 NE5       29.97R
FORT MEADE*    CLEAR     32  30  93 CALM      30.00R

$$

MDZ012-015-019>023-250900-
MARYLAND EASTERN SHORE

CITY           SKY/WX    TMP DP  RH WIND       PRES   REMARKS
OCEAN CITY     CLEAR     44  33  65 NE10      29.96S
SALISBURY      CLEAR     38  30  73 E6        29.96R
BAY BRIDGE AP*   N/A    N/A N/A N/A E7        29.98R
CAMBRIDGE*     CLEAR     45  28  53 NE6       29.96R
EASTON*        CLEAR     41  30  66 E5        30.01R

$$

MDZ017>025-250900-
SOUTHERN MARYLAND

CITY           SKY/WX    TMP DP  RH WIND       PRES   REMARKS
PATUXENT RIVER CLEAR     42  34  73 CALM      29.95S
ST INIGOES     PTCLDY    41  30  65 CALM      29.95R
LEONARDTOWN*   PTCLDY    37  30  75 CALM      29.97S

$$

MDZ003>005-250900-
NORTH CENTRAL MARYLAND

CITY           SKY/WX    TMP DP  RH WIND       PRES   REMARKS
FREDERICK*     CLEAR     34  27  75 CALM      30.00S
HAGERSTOWN APT CLEAR     40  12  32 N7        29.97R
WESTMINSTER*   CLEAR     37  23  56 CALM      29.96R

$$

MDZ501>502-250900-
WESTERN MARYLAND

CITY           SKY/WX    TMP DP  RH WIND       PRES   REMARKS
OAKLAND*       CLOUDY    34  18  51 CALM      29.93R
CUMBERLAND*    PTCLDY    39  27  60 NE3       30.03R

$$

VAZ025>031-250900-
SHENANDOAH VALLEY

CITY           SKY/WX    TMP DP  RH WIND       PRES   REMARKS
WINCHESTER*    MOCLDY    43  19  39 N3        29.97S
FRONT ROYAL*   CLOUDY    41  30  65 CALM      29.96R
LURAY*         PTSUNNY   37  34  87 CALM      29.95S
NEW MARKET*    PTSUNNY   34  31  90 CALM      29.95S
STAUNTON*      CLOUDY    39  32  76 N6        29.95F
WAYNESBORO*    FAIR      41  29  64 CALM      29.94R

$$

WVZ021-048>050-054>055-250900-
EASTERN WEST VIRGINIA PANHANDLE

CITY           SKY/WX    TMP DP  RH WIND       PRES   REMARKS
MARTINSBURG    PTCLDY    43  15  32 NW3       29.98R
PETERSBURG*    MOCLDY    35  29  79 CALM      29.98S

$$

VAZ036>039-050-250900-
CENTRAL FOOTHILLS

CITY           SKY/WX    TMP DP  RH WIND       PRES   REMARKS
CHARLOTTESVILL MOCLDY    41  31  67 CALM      29.93F
CULPEPER*      CLOUDY    45  34  65 CALM      29.97R
ORANGE*        MOCLDY    41  34  75 CALM      29.96S
GORDONSVILLE*  FAIR      39  33  78 CALM      29.93F
WARRENTON*     CLOUDY    45  32  59 CALM      29.96R

$$

VAZ055>057-250900-
NORTH AND CENTRAL PIEDMONT

CITY           SKY/WX    TMP DP  RH WIND       PRES   REMARKS
FREDERICKSBRG* MOCLDY    46  31  55 N3        29.95R
STAFFORD*      MOCLDY    47  23  37 N5        30.00R

$$

NCZ024-NYZ072-PAZ021-071-VAZ022-071-250900-
OTHER REGIONAL OBSERVATIONS

CITY           SKY/WX    TMP DP  RH WIND       PRES   REMARKS
NEW YORK CITY  CLEAR     39  21  48 W8G16     29.93R
PHILADELPHIA   CLEAR     41  21  44 W5        29.97F
PITTSBURGH     CLOUDY    40  20  44 E5        29.96F
ROANOKE        CLOUDY    47  31  53 NW3       29.95S
RICHMOND       CLOUDY    48  36  63 S3        29.95R
RALEIGH        MOCLDY    48  41  76 CALM      29.93S

$$

ANZ530>537-250900-
MARINE OBSERVATIONS

STATION/POSITION TIME  TEMP    WIND        PRES
                       AIR SEA DIR/SP/G
                 (UTC) (F)     (DEG/KT/KT) (MB)
THOMAS PT LIGHT  0800   46 53   80/ 13/ 14 1015.5R
BALT KEY BRIDGE  0700   48     350/  8/ 12 1014.8R
COVE POINT       0700   52      10/ 10/ 13 1014.8S
LEWISETTA        0700   48 56              1014.2R
SOLOMONS ISLAND  0700      55                N/A
PINEY POINT      0700          320/  1/  2   N/A

$$




USA.gov is the U.S. government's official web portal to all federal, state and local government web resources and services.